Regional Weather Roundup
Issued by NWS State College, PA

Home | Current Version | Previous Version | Graphics & Text | Print | Product List | Glossary Off
Versions: 1 2 3 4 5 6 7 8 9 10 11 12 13 14 15 16 17 18 19 20 21 22 23 24 25 26 27 28 29 30 31 32 33 34 35 36 37 38 39 40 41 42 43 44 45 46 47 48 49 50

000
ASUS41 KCTP 221803
RWRCTP

REGIONAL WEATHER ROUNDUP
NATIONAL WEATHER SERVICE STATE COLLEGE PA
200 PM EDT TUE MAY 22 2018

Note: "fair" indicates few or no clouds below 12,000 feet with no
significant weather and/or obstructions to visibility.

* = STATION THAT DOES NOT REPORT PRECIPITATION /E.G. RAIN...SNOW...ETC/
    THUNDER OR FOG.

PAZ002>004-007>009-013>016-020>023-029>032-221900-
WESTERN PENNSYLVANIA

CITY           SKY/WX    TMP DP  RH WIND       PRES   REMARKS
ERIE           CLOUDY    70  64  81 W12       29.97F
MEADVILLE      CLOUDY    69  67  93 S5        30.00F
FRANKLIN*      CLOUDY    68  64  87 SW6       30.02F
NEW CASTLE     CLOUDY    74  68  81 SW9       30.01F
BEAVER COUNTY  CLOUDY    75  66  73 SW10G17   30.03F
BUTLER*        PTSUNNY   71  65  81 SW9       30.03F
PITTSBURGH INT CLOUDY    73  66  78 VRB7      30.03F
PITTSBURGH     CLOUDY    70  65  84 SW7       30.03F
INDIANA*       CLOUDY    68  66  94 W9        30.08F
LATROBE        PTSUNNY   72  68  88 SW14      30.06F
WASHINGTON CO* NOT AVBL
$$

PAZ004>006-010>012-017>019-024>028-033>037-041-042-045-046-049>053-221900-
CENTRAL PENNSYLVANIA

CITY           SKY/WX    TMP DP  RH WIND       PRES   REMARKS
BRADFORD       CLOUDY    66  62  87 W8        30.03F
DUBOIS         CLOUDY    67  64  90 SW8       30.03F
CLEARFIELD     CLOUDY    68  65  90 SW7       30.04F
JOHNSTOWN      CLOUDY    67  63  87 W9        30.07F
ALTOONA        CLOUDY    70  65  84 SW7       30.05F
STATE COLLEGE  RAIN      66  66 100 CALM      30.03F FOG
WILLIAMSPORT   CLOUDY    64  60  87 SE8       30.02F
SELINSGROVE    CLOUDY    64  61  90 S6        30.05F
FT INDIANTOWN  LGT RAIN  62  61  99 SE5       30.07S
CAPITAL CITY   LGT RAIN  67  62  84 SE5       30.05F
HARRISBURG     LGT RAIN  65  62  90 SE5       30.05F
YORK           CLOUDY    67  64  90 SW5       30.05F
$$

PAZ038>040-043-044-047-048-054-055-060>062-067>071-221900-
EASTERN PENNSYLVANIA

CITY           SKY/WX    TMP DP  RH WIND       PRES   REMARKS
SCRANTON       CLOUDY    58  52  80 CALM      30.09F
MOUNT POCONO   LGT RAIN  54  50  86 SE9       30.11F
ALLENTOWN      RAIN      61  52  72 E5        30.10F
QUAKERTOWN*    CLOUDY    59  57  94 CALM      30.11F FOG
READING        LGT RAIN  61  61 100 SE5       30.06F FOG
LANCASTER      LGT RAIN  61  59  93 SE9       30.07F
COATESVILLE    LGT RAIN  59  57  94 SE5       30.10F
POTTSTOWN      HVY RAIN  57  57 100 NE5       30.11F FOG
BLUE BELL      CLOUDY    57  57 100 CALM      30.12S VSB 3/4
DOYLESTOWN     HVY RAIN  59  58  96 CALM      30.11S FOG
WILLOW GROVE   NOT AVBL
NORTH PHILA    RAIN      65  58  78 W5        30.11F
PHILADELPHIA   HVY RAIN  61  58  90 N5        30.10S FOG
$$



USA.gov is the U.S. government's official web portal to all federal, state and local government web resources and services.